STARLINK-32132, 60334

Orbit data source: Space-Track

STARLINK-32132, 60334 is a payload satellite owned by SpaceX/Seattle (US) in LEO that was launched on Fri, 02 Aug 2024 UTC via an FALCON 9 launch vehicle from the Air Force Eastern Test Range (AFETR). Payload-class satellites include a variety of spacecraft equipped with specific instruments for various scientific and technological missions. These include communications satellites like Starlink; space stations such as the ISS; scientific satellites like the Hubble; Earth observation satellites from companies like Planet Labs, Umbra, and HawkEye 360; GPS; miniature CubeSats for education and research; and military/defense satellites.

Loading next visibility...
Identifier
60334, 2024-136F
Orbit
LEO
Country
Flag of USUS
Related business
Manufacturer
SpaceX/Seattle
Mission
Operational Commercial Communications
Bus & Motor
STARLINK V2M, Unknown motor
Mass
730 kg wet, ~700 kg dry
Launch date (UTC)
2024-08-02 (1 year ago)
Launch vehicle
FALCON 9
Launch site
Air Force Eastern Test Range (AFETR)
Object type
Payload
Rocket body
Debris
Shape & HBR
Box + 2 Pan, 17.7 m
Radar Cross Section
33.884 m², Large (>1 m²)

Expand to show TLE details & history
Last TLE update: 15 hours ago

TLE from 15 hours ago
0 STARLINK-32132
1 60334U 24136F   25302.35116598 -.00000898  00000-0 -18200-4 0  9994
2 60334  53.1602 325.8926 0001326  71.4662 288.6483 15.30205946 69557
Epoch: 2025-10-29T08:25Z
TLE epoch observation values (Epoch: 2025-10-29T08:25:40.740Z)
Latitude
-0.00001°
Longitude
161.54729°
Altitude
475.807 km
Speed
7.629 km/s
True Right ascension
21h 43m 34s
True Declination
0° 00' 00"
Sunlit
Object was in partial shadow at epoch
Visualization orbit readout
Latitude
Unknown
Longitude
Unknown
Altitude
Unknown
Speed
Unknown
Apparent Right ascension
Unknown
Apparent Declination
Unknown
Sunlit
N/A
Visualization observer readout
Local Sidereal Time
18:42:33
Azimuth
Unknown
Elevation
Unknown
Doppler factor
Unknown
Orbital elements
Apogee altitude
476.363 km
Perigee altitude
474.545 km
Semi-major axis
6,853.591 km
Eccentricity
0.00013
Inclination
53.1602°
RAAN
325.8926°
Arg. of periapsis
71.4662°
True anomaly
288.6339°
Mean anomaly
288.6483°
Eccentric anomaly
288.6411°
Mean motion
3.8253 °/min
Orbital period
94.11 mins
BSTAR
-0.0000182
Loading maneuver chart data...
Computing Atmospheric mass density...
Loading historical data...
Loading historical data...
Loading historical data...
Loading historical data...
Loading historical data...
Loading historical data...
Loading historical data...

Documentation

Showing up to 5 results
|